Kuiper-00065

operational
NORAD ID: 64525 Int'l Des: 2025-134 Owner: KUIP Country: US Constellation: kuiper
LEOCIRCULAR

About Kuiper-00065

Description loading...

Live Position

Loading 3D Globe...

Upcoming Passes

Altitude History

Altitude vs Time

uPlot chart will show altitude changes over time

Two-Line Element Set

1 64525U 25134AB 26061.59817209 .00003770 00000-0 53170-3 0 9999
2 64525 51.9020 272.0282 0001437 205.4888 154.6004 14.79250438 38907
Epoch: Mar 2, 2026 • Age: 29 hours

Current Status

Altitude 633.7 km
Velocity 7.54 km/s
Sub-Earth Point -2.71°S, 32.23°E
Launch Date Jun 23, 2025
Age 0.6 years
Type internet

Technical Details

Classification Payload
Mass 490.00 kg
Dry Mass 490.00 kg
Total Mass 490.00 kg
Length 1.80 m
Diameter 0.70 m
Span 5.00 m
Shape Box + 2 pan
Manufacturer KUIP
Bus Type Kuiper
Phase Status In Orbit
Owner/State KUIP/US

Large Constellations

Loading constellations...